BTI36V EETN-EKCH

Flight info

Callsign BTI36V
Flight time N/A
Altitude 20000
Route ORTAX DCT LUTAL
Aircraft A320/M-SDE3FGHIRWY/LB1

Departure

Time N/A
Airport Lennart Meri Tallinn Airport (EETN)

Arrival

Time 2026-04-26 18:19
Airport Copenhagen Kastrup Airport (EKCH)
Time Latitude Longitude Altitude Speed Heading
2026-04-26 17:55 55.72283 15.48681 20251 ft 428 kts 255°
2026-04-26 17:55 55.71217 15.43745 20252 ft 428 kts 255°
2026-04-26 17:55 55.70147 15.38818 20260 ft 428 kts 255°
2026-04-26 17:55 55.69074 15.33900 20261 ft 428 kts 255°
2026-04-26 17:56 55.68117 15.28943 20252 ft 423 kts 260°
2026-04-26 17:56 55.66589 15.18871 20244 ft 423 kts 261°
2026-04-26 17:57 55.65127 15.08834 20246 ft 424 kts 261°
2026-04-26 17:57 55.64385 15.03783 20224 ft 424 kts 260°
2026-04-26 17:57 55.63635 14.98735 20230 ft 424 kts 260°
2026-04-26 17:57 55.62878 14.93689 20239 ft 424 kts 260°
2026-04-26 17:58 55.60577 14.78571 20264 ft 425 kts 260°
2026-04-26 17:59 55.59033 14.68502 20270 ft 425 kts 260°
2026-04-26 17:59 55.58256 14.63457 20253 ft 425 kts 259°
2026-04-26 17:59 55.57479 14.58418 20262 ft 424 kts 259°
2026-04-26 17:59 55.56701 14.53385 20268 ft 424 kts 259°
2026-04-26 18:00 55.55922 14.48354 20272 ft 424 kts 259°
2026-04-26 18:00 55.55143 14.43345 20208 ft 422 kts 259°
2026-04-26 18:00 55.54371 14.38394 19521 ft 415 kts 259°
2026-04-26 18:00 55.53606 14.33508 18734 ft 411 kts 259°
2026-04-26 18:01 55.52844 14.28660 17884 ft 408 kts 259°
2026-04-26 18:01 55.52090 14.23865 17080 ft 404 kts 259°
2026-04-26 18:01 55.51340 14.19111 16309 ft 400 kts 259°
2026-04-26 18:01 55.50594 14.14412 15587 ft 396 kts 259°
2026-04-26 18:02 55.49850 14.09747 14873 ft 393 kts 259°
2026-04-26 18:02 55.49610 14.08246 14648 ft 392 kts 259°
2026-04-26 18:02 55.48385 14.00554 13419 ft 386 kts 259°
2026-04-26 18:02 55.47661 13.96010 12663 ft 383 kts 258°
2026-04-26 18:03 55.46943 13.91514 11896 ft 380 kts 258°
2026-04-26 18:03 55.46227 13.87053 11137 ft 377 kts 258°
2026-04-26 18:03 55.45512 13.82622 10531 ft 371 kts 258°
2026-04-26 18:03 55.44829 13.78419 10323 ft 348 kts 258°
2026-04-26 18:04 55.44189 13.74535 10266 ft 313 kts 258°
2026-04-26 18:04 55.43609 13.71026 10277 ft 288 kts 259°
2026-04-26 18:04 55.43063 13.67704 10276 ft 280 kts 259°
2026-04-26 18:05 55.42004 13.61146 10276 ft 278 kts 259°
2026-04-26 18:05 55.41606 13.57843 10277 ft 274 kts 269°
2026-04-26 18:05 55.41581 13.54523 10276 ft 270 kts 279°
2026-04-26 18:05 55.41917 13.51302 10276 ft 266 kts 290°
2026-04-26 18:06 55.42467 13.48192 10169 ft 265 kts 290°
2026-04-26 18:06 55.43006 13.45107 9765 ft 263 kts 290°
2026-04-26 18:06 55.43536 13.42037 9357 ft 261 kts 290°
2026-04-26 18:06 55.44057 13.38991 8966 ft 259 kts 289°
2026-04-26 18:07 55.44573 13.35963 8566 ft 257 kts 289°
2026-04-26 18:07 55.45087 13.32962 8170 ft 255 kts 289°
2026-04-26 18:07 55.45533 13.29942 7770 ft 255 kts 281°
2026-04-26 18:07 55.45592 13.27871 7507 ft 257 kts 270°
2026-04-26 18:08 55.45038 13.23771 6991 ft 261 kts 250°
2026-04-26 18:08 55.44274 13.20887 6597 ft 259 kts 249°
2026-04-26 18:08 55.43517 13.18022 6182 ft 257 kts 249°
2026-04-26 18:08 55.42767 13.15176 5774 ft 255 kts 249°
2026-04-26 18:09 55.42023 13.12357 5377 ft 253 kts 248°
2026-04-26 18:09 55.41405 13.09504 5056 ft 245 kts 262°
2026-04-26 18:09 55.41205 13.06563 5027 ft 246 kts 266°
2026-04-26 18:09 55.41020 13.03561 5029 ft 247 kts 266°
2026-04-26 18:10 55.40834 13.00551 5029 ft 247 kts 266°
2026-04-26 18:10 55.40648 12.97542 5027 ft 247 kts 266°
2026-04-26 18:10 55.40462 12.94530 5024 ft 248 kts 266°
2026-04-26 18:10 55.40300 12.91518 5023 ft 247 kts 271°
2026-04-26 18:11 55.40349 12.88509 4964 ft 244 kts 275°
2026-04-26 18:11 55.40451 12.85540 4509 ft 243 kts 275°
2026-04-26 18:11 55.40565 12.82572 4005 ft 244 kts 275°
2026-04-26 18:11 55.40688 12.79585 3545 ft 244 kts 275°
2026-04-26 18:12 55.40823 12.76605 3093 ft 244 kts 275°
2026-04-26 18:12 55.40965 12.73639 3019 ft 244 kts 275°
2026-04-26 18:12 55.41109 12.70649 3026 ft 246 kts 275°
2026-04-26 18:12 55.41254 12.67653 3028 ft 246 kts 275°
2026-04-26 18:13 55.41398 12.64656 3024 ft 245 kts 275°
2026-04-26 18:13 55.41542 12.61663 3024 ft 246 kts 275°
2026-04-26 18:13 55.41703 12.58671 3024 ft 245 kts 278°
2026-04-26 18:13 55.41797 12.57710 3021 ft 245 kts 283°
2026-04-26 18:14 55.42866 12.53117 2508 ft 236 kts 295°
2026-04-26 18:14 55.43547 12.50637 2360 ft 214 kts 295°
2026-04-26 18:14 55.43973 12.49103 2173 ft 206 kts 295°
2026-04-26 18:14 55.44629 12.46912 2016 ft 203 kts 306°
2026-04-26 18:15 55.45662 12.45202 2027 ft 208 kts 327°
2026-04-26 18:15 55.47026 12.44339 2022 ft 211 kts 351°
2026-04-26 18:15 55.48942 12.44845 2021 ft 215 kts 24°
2026-04-26 18:15 55.50102 12.46323 2028 ft 195 kts 39°
2026-04-26 18:16 55.51069 12.47812 2036 ft 177 kts 39°
2026-04-26 18:16 55.52588 12.50144 1819 ft 169 kts 39°
2026-04-26 18:16 55.53451 12.51470 1586 ft 159 kts 38°
2026-04-26 18:17 55.54263 12.52718 1378 ft 152 kts 39°
2026-04-26 18:17 55.55052 12.53930 1163 ft 149 kts 39°
2026-04-26 18:17 55.55833 12.55132 956 ft 149 kts 40°
2026-04-26 18:17 55.56608 12.56322 736 ft 146 kts 40°
2026-04-26 18:18 55.57364 12.57489 547 ft 142 kts 40°
2026-04-26 18:18 55.58095 12.58616 356 ft 136 kts 39°
2026-04-26 18:18 55.58797 12.59693 175 ft 135 kts 40°
2026-04-26 18:18 55.59506 12.60785 30 ft 132 kts 41°
2026-04-26 18:19 55.60065 12.61655 28 ft 71 kts 41°
2026-04-26 18:19 55.60333 12.62071 23 ft 62 kts 41°
2026-04-26 18:19 55.60561 12.62416 26 ft 36 kts 42°
2026-04-26 18:19 55.60749 12.62707 31 ft 33 kts 35°
2026-04-26 18:20 55.60959 12.62862 24 ft 33 kts 13°
2026-04-26 18:20 55.61124 12.62931 24 ft 15 kts 20°
2026-04-26 18:20 55.61213 12.63052 24 ft 17 kts 41°
2026-04-26 18:20 55.61276 12.63148 24 ft 19 kts 41°
2026-04-26 18:21 55.61418 12.63368 24 ft 22 kts 38°
2026-04-26 18:21 55.61537 12.63551 24 ft 24 kts 41°
2026-04-26 18:21 55.61654 12.63732 26 ft 18 kts 41°
2026-04-26 18:21 55.61742 12.63868 25 ft 18 kts 41°
2026-04-26 18:22 55.61832 12.64007 24 ft 17 kts 41°
2026-04-26 18:22 55.61928 12.64118 26 ft 14 kts 24°
2026-04-26 18:22 55.62028 12.64194 24 ft 17 kts 25°
2026-04-26 18:22 55.62138 12.64293 25 ft 18 kts 24°
2026-04-26 18:23 55.62250 12.64383 22 ft 19 kts 20°
2026-04-26 18:23 55.62369 12.64437 24 ft 14 kts 15°
2026-04-26 18:23 55.62433 12.64421 24 ft 9 kts 312°
2026-04-26 18:23 55.62477 12.64327 24 ft 15 kts 308°
2026-04-26 18:24 55.62572 12.64069 24 ft 27 kts 303°
2026-04-26 18:24 55.62649 12.63871 24 ft 0 kts 306°
2026-04-26 18:24 55.62658 12.63858 25 ft 6 kts 325°
2026-04-26 18:24 55.62732 12.63903 25 ft 16 kts 38°
2026-04-26 18:25 55.62831 12.63914 24 ft 19 kts 304°
2026-04-26 18:25 55.62861 12.63718 24 ft 11 kts 279°
2026-04-26 18:25 55.62861 12.63630 24 ft 6 kts 268°
2026-04-26 18:25 55.62861 12.63587 24 ft 1 kts 279°
2026-04-26 18:26 55.62872 12.63572 25 ft 2 kts 351°
2026-04-26 18:26 55.62881 12.63587 24 ft 3 kts 39°
2026-04-26 18:26 55.62892 12.63602 24 ft 0 kts 41°
2026-04-26 18:26 55.62903 12.63620 24 ft 2 kts 44°
2026-04-26 18:27 55.62905 12.63624 24 ft 0 kts 43°
2026-04-26 18:27 55.62907 12.63626 26 ft 1 kts 43°
2026-04-26 18:27 55.62908 12.63629 25 ft 0 kts 43°